Morrisville, VT

7:33 PM EST on December 12, 2019 (GMT -0500)
Morrisville Stowe State

Weather History for KMVL - August, 2019

Change the Weather History Date:

Friday, August 16, 2019

  Actual Average Record
Temperature  
Mean Temperature 69 °F 66 °F  
Max Temperature 78 °F 78 °F 87 °F (2002)
Min Temperature 59 °F 54 °F 46 °F (2001)
Degree Days  
Heating Degree Days 0 2  
Month to date heating degree days 20 27  
Since 1 June heating degree days 173 180  
Since 1 July heating degree days 30 57  
Cooling Degree Days 4 3  
Month to date cooling degree days 28 48  
Year to date cooling degree days 210 216  
Since 1 June cooling degree days 209 208  
Growing Degree Days 17 (Base 50)    
Moisture  
Dew Point 61 °F    
Average Humidity 77    
Maximum Humidity 93    
Minimum Humidity 60    
Precipitation  
Precipitation 0.01 in 0.15 in 1.30 in (2007)
Month to date precipitation 1.58 2.21  
Year to date precipitation 25.02 21.94  
Sea Level Pressure  
Sea Level Pressure 30.02 in    
Wind  
Wind Speed 3 mph (SSW)    
Max Wind Speed 15 mph    
Max Gust Speed 18 mph    
Visibility 10 miles    
Events Rain    
T = Trace of Precipitation, MM = Missing Value Source: NWS Daily Summary

Daily Weather History Graph

Daily Weather History Graph

Search for Another Location

Airport or City:

Astronomy

Aug. 16, 2019 Rise Set
Actual Time 5:54 AM EDT 7:54 PM EDT
Civil Twilight 5:22 AM EDT 8:26 PM EDT
Nautical Twilight 4:43 AM EDT 9:04 PM EDT
Astronomical Twilight 4:01 AM EDT 9:46 PM EDT
Moon 8:51 PM EDT (8/16) 6:43 AM EDT (8/16)
Length of Visible Light 15h 03m
Length of Day
14h 00m
Full, 99% of the Moon is Illuminated
Aug 16
Full
Aug 23
Last Quarter
Aug 30
New
Sep 5
First Quarter
Sep 14
Full

Hourly Weather History & Observations

Time (EDT) Temp. Dew Point Humidity Pressure Visibility Wind Dir Wind Speed Gust Speed Precip Events Conditions
12:54 AM 60.1 °F 57.0 °F 90% 30.03 in 10.0 mi Calm Calm - N/A   Scattered Clouds
1:54 AM 59.0 °F 57.0 °F 93% 30.02 in 10.0 mi Calm Calm - 0.00 in Rain Light Rain
2:54 AM 60.1 °F 57.9 °F 93% 30.02 in 10.0 mi Calm Calm - 0.00 in Rain Light Rain
3:54 AM 60.1 °F 57.9 °F 93% 30.01 in 10.0 mi NNE 3.5 mph - 0.00 in   Overcast
4:54 AM 59.0 °F 57.9 °F 96% 30.01 in 10.0 mi Calm Calm - 0.01 in Rain Light Rain
5:54 AM 59.0 °F 57.9 °F 96% 30.02 in 10.0 mi Calm Calm - 0.00 in   Mostly Cloudy
6:54 AM 60.1 °F 57.9 °F 93% 30.03 in 10.0 mi Calm Calm - N/A   Overcast
7:54 AM 63.0 °F 60.1 °F 90% 30.05 in 10.0 mi Calm Calm - 0.00 in   Mostly Cloudy
8:54 AM 64.0 °F 61.0 °F 90% 30.05 in 10.0 mi NNE 5.8 mph - 0.00 in   Overcast
9:54 AM 69.1 °F 63.0 °F 81% 30.05 in 10.0 mi Variable 4.6 mph - N/A   Overcast
10:54 AM 73.0 °F 61.0 °F 66% 30.05 in 10.0 mi SSW 8.1 mph - N/A   Overcast
11:54 AM 73.0 °F 61.0 °F 66% 30.04 in 10.0 mi SW 5.8 mph - N/A   Overcast
12:54 PM 75.0 °F 60.1 °F 60% 30.04 in 10.0 mi SSW 8.1 mph - N/A   Mostly Cloudy
1:54 PM 75.9 °F 62.1 °F 62% 30.04 in 10.0 mi Variable 3.5 mph - N/A   Mostly Cloudy
2:54 PM 75.0 °F 61.0 °F 62% 30.02 in 10.0 mi SW 6.9 mph - N/A   Overcast
3:54 PM 75.9 °F 62.1 °F 62% 30.02 in 10.0 mi South 3.5 mph - N/A   Overcast
4:54 PM 75.9 °F 63.0 °F 64% 30.01 in 10.0 mi SW 4.6 mph - N/A   Overcast
5:54 PM 75.0 °F 64.0 °F 69% 30.00 in 10.0 mi SE 5.8 mph - N/A   Overcast
6:54 PM 73.9 °F 64.0 °F 71% 30.00 in 10.0 mi Calm Calm - N/A   Scattered Clouds
7:54 PM 71.1 °F 66.0 °F 84% 30.01 in 10.0 mi Calm Calm - N/A   Mostly Cloudy
8:54 PM 66.9 °F 64.0 °F 90% 30.01 in 10.0 mi SW 3.5 mph - N/A   Mostly Cloudy
9:54 PM 68.0 °F 64.9 °F 90% 30.01 in 10.0 mi Calm Calm - N/A   Mostly Cloudy
10:54 PM 68.0 °F 64.0 °F 87% 30.01 in 10.0 mi Calm Calm - N/A   Overcast
11:54 PM 66.9 °F 64.0 °F 90% 30.01 in 10.0 mi Calm Calm - N/A   Mostly Cloudy